| time (UTC) | temp C | wind direction | speed KPH | gust KPH | rain 1hr cm | rain 24hr cm | rain mn cm | humidity % | barometer mb |
| 20260506211504 | 18 | 111 | 0.0 | 3.2 | 0.00 | 0.64 | 0.64 | 85 | 1006.5 |
| 20260506210007 | 18 | 207 | 1.6 | 8.0 | 0.00 | 0.64 | 0.64 | 85 | 1006.6 |
| 20260506204508 | 18 | 196 | 4.8 | 8.0 | 0.00 | 0.64 | 0.64 | 85 | 1006.5 |
| 20260506203011 | 17 | 202 | 3.2 | 8.0 | 0.00 | 0.64 | 0.64 | 85 | 1006.6 |
| 20260506201519 | 17 | 216 | 3.2 | 8.0 | 0.00 | 0.64 | 0.64 | 86 | 1006.6 |
| 20260506200004 | 17 | 198 | 6.4 | 12.9 | 0.00 | 0.64 | 0.64 | 85 | 1006.6 |
| 20260506194508 | 17 | 198 | 4.8 | 12.9 | 0.00 | 0.64 | 0.64 | 86 | 1006.6 |
| 20260506193021 | 17 | 194 | 6.4 | 9.7 | 0.00 | 0.64 | 0.64 | 87 | 1006.6 |
| 20260506191515 | 17 | 203 | 4.8 | 9.7 | 0.00 | 0.64 | 0.64 | 88 | 1006.7 |
| 20260506190016 | 17 | 228 | 6.4 | 16.1 | 0.00 | 0.64 | 0.64 | 89 | 1006.9 |
| 20260506184505 | 16 | 208 | 6.4 | 16.1 | 0.00 | 0.64 | 0.64 | 89 | 1007.1 |
| 20260506183010 | 16 | 213 | 4.8 | 8.0 | 0.00 | 0.64 | 0.64 | 90 | 1007.3 |
| 20260506181512 | 16 | 207 | 6.4 | 12.9 | 0.00 | 0.64 | 0.64 | 91 | 1007.4 |
| 20260506180025 | 16 | 194 | 6.4 | 12.9 | 0.03 | 0.64 | 0.64 | 91 | 1007.4 |
| 20260506174517 | 16 | 200 | 6.4 | 11.3 | 0.05 | 0.64 | 0.64 | 91 | 1007.6 |
| 20260506173007 | 16 | 202 | 8.0 | 12.9 | 0.10 | 0.64 | 0.64 | 91 | 1007.5 |
| 20260506171512 | 16 | 209 | 3.2 | 14.5 | 0.10 | 0.64 | 0.64 | 91 | 1007.5 |
| 20260506170003 | 16 | 195 | 4.8 | 8.0 | 0.10 | 0.61 | 0.61 | 91 | 1007.6 |
| 20260506164517 | 16 | 201 | 6.4 | 11.3 | 0.10 | 0.58 | 0.58 | 90 | 1007.8 |
| 20260506163010 | 16 | 197 | 6.4 | 12.9 | 0.10 | 0.53 | 0.53 | 89 | 1007.8 |
| 20260506161512 | 16 | 203 | 8.0 | 17.7 | 0.15 | 0.53 | 0.53 | 89 | 1007.7 |
| 20260506160003 | 16 | 213 | 6.4 | 17.7 | 0.23 | 0.51 | 0.51 | 90 | 1007.3 |
| 20260506154503 | 16 | 212 | 6.4 | 19.3 | 0.25 | 0.48 | 0.48 | 90 | 1007.6 |
| 20260506153003 | 16 | 217 | 4.8 | 14.5 | 0.25 | 0.43 | 0.43 | 90 | 1008.2 |
| 20260506151507 | 16 | 177 | 8.0 | 16.1 | 0.25 | 0.38 | 0.38 | 90 | 1008.6 |
| 20260506150011 | 16 | 205 | 9.7 | 17.7 | 0.18 | 0.28 | 0.28 | 88 | 1008.6 |
| 20260506144503 | 16 | 201 | 8.0 | 14.5 | 0.13 | 0.23 | 0.23 | 88 | 1008.3 |
| 20260506143004 | 16 | 201 | 6.4 | 14.5 | 0.10 | 0.18 | 0.18 | 88 | 1008.3 |
| 20260506141518 | 16 | 207 | 6.4 | 12.9 | 0.08 | 0.13 | 0.13 | 87 | 1008.1 |
| 20260506140020 | 16 | 211 | 8.0 | 17.7 | 0.08 | 0.10 | 0.10 | 86 | 1008.4 |
| 20260506134516 | 16 | 202 | 4.8 | 14.5 | 0.08 | 0.10 | 0.10 | 86 | 1008.3 |
| 20260506133003 | 16 | 205 | 6.4 | 9.7 | 0.08 | 0.08 | 0.08 | 86 | 1008.4 |
| 20260506131509 | 16 | 198 | 3.2 | 9.7 | 0.05 | 0.05 | 0.05 | 86 | 1008.8 |
| 20260506130008 | 16 | 210 | 6.4 | 11.3 | 0.03 | 0.03 | 0.03 | 85 | 1008.8 |
| 20260506124513 | 16 | 202 | 4.8 | 12.9 | 0.03 | 0.03 | 0.03 | 84 | 1008.8 |
| 20260506123018 | 17 | 199 | 4.8 | 11.3 | 0.00 | 0.00 | 0.00 | 82 | 1008.9 |
| 20260506121508 | 17 | 185 | 8.0 | 12.9 | 0.00 | 0.00 | 0.00 | 80 | 1008.7 |
| 20260506120011 | 17 | 214 | 6.4 | 12.9 | 0.00 | 0.00 | 0.00 | 78 | 1008.5 |
| 20260506114510 | 18 | 196 | 4.8 | 12.9 | 0.00 | 0.00 | 0.00 | 75 | 1008.5 |
| 20260506113013 | 18 | 203 | 4.8 | 11.3 | 0.00 | 0.00 | 0.00 | 72 | 1008.3 |
| 20260506111523 | 18 | 181 | 6.4 | 11.3 | 0.00 | 0.00 | 0.00 | 71 | 1008.3 |
| 20260506110006 | 18 | 200 | 8.0 | 25.7 | 0.00 | 0.00 | 0.00 | 70 | 1008.1 |
| 20260506104513 | 18 | 198 | 9.7 | 19.3 | 0.00 | 0.00 | 0.00 | 70 | 1007.9 |
| 20260506103034 | 18 | 210 | 9.7 | 19.3 | 0.00 | 0.00 | 0.00 | 69 | 1007.8 |
| 20260506101519 | 19 | 158 | 6.4 | 19.3 | 0.00 | 0.00 | 0.00 | 69 | 1007.7 |
| 20260506100023 | 19 | 221 | 8.0 | 17.7 | 0.00 | 0.00 | 0.00 | 68 | 1007.6 |
| 20260506094510 | 19 | 198 | 6.4 | 25.7 | 0.00 | 0.00 | 0.00 | 67 | 1007.9 |
| 20260506093020 | 19 | 196 | 6.4 | 17.7 | 0.00 | 0.00 | 0.00 | 66 | 1007.9 |
| 20260506091519 | 20 | 161 | 11.3 | 22.5 | 0.00 | 0.00 | 0.00 | 65 | 1007.7 |
| 20260506090024 | 20 | 192 | 9.7 | 16.1 | 0.00 | 0.00 | 0.00 | 64 | 1007.6 |
| 20260506084558 | 20 | 224 | 8.0 | 19.3 | 0.00 | 0.00 | 0.00 | 63 | 1007.8 |
| 20260506083013 | 20 | 206 | 12.9 | 20.9 | 0.00 | 0.00 | 0.00 | 61 | 1007.8 |
| 20260506081518 | 20 | 216 | 9.7 | 17.7 | 0.00 | 0.00 | 0.00 | 60 | 1007.8 |
| 20260506073027 | 20 | 197 | 8.0 | 17.7 | 0.00 | 0.00 | 0.00 | 58 | 1007.9 |
| 20260506071516 | 20 | 200 | 9.7 | 12.9 | 0.00 | 0.00 | 0.00 | 57 | 1008.0 |
| 20260506061514 | 21 | 190 | 8.0 | 19.3 | 0.00 | 0.00 | 0.00 | 54 | 1008.3 |
| 20260506044521 | 21 | 192 | 9.7 | 24.1 | 0.00 | 0.00 | 0.00 | 49 | 1008.9 |
| 20260506043004 | 21 | 173 | 14.5 | 25.7 | 0.00 | 0.00 | 0.00 | 48 | 1009.0 |
| 20260506041507 | 21 | 200 | 9.7 | 19.3 | 0.00 | 0.00 | 0.00 | 47 | 1009.0 |
| 20260506040009 | 22 | 207 | 9.7 | 22.5 | 0.00 | 0.00 | 0.00 | 46 | 1009.1 |
| 20260506034522 | 22 | 155 | 8.0 | 17.7 | 0.00 | 0.00 | 0.00 | 45 | 1009.0 |
| 20260506033022 | 22 | 181 | 11.3 | 17.7 | 0.00 | 0.00 | 0.00 | 45 | 1008.9 |
| 20260506031504 | 22 | 191 | 9.7 | 19.3 | 0.00 | 0.00 | 0.00 | 44 | 1008.9 |
| 20260506030010 | 22 | 212 | 11.3 | 27.4 | 0.00 | 0.00 | 0.00 | 44 | 1008.9 |
| 20260506024513 | 22 | 196 | 11.3 | 17.7 | 0.00 | 0.00 | 0.00 | 43 | 1008.8 |
| 20260506023034 | 22 | 150 | 12.9 | 22.5 | 0.00 | 0.00 | 0.00 | 44 | 1009.0 |
| 20260506021533 | 22 | 177 | 6.4 | 11.3 | 0.00 | 0.00 | 0.00 | 44 | 1009.1 |
| 20260506020007 | 23 | 211 | 6.4 | 14.5 | 0.00 | 0.00 | 0.00 | 42 | 1008.9 |
| 20260506014513 | 23 | 184 | 12.9 | 16.1 | 0.00 | 0.00 | 0.00 | 42 | 1008.8 |
| 20260506013027 | 23 | 199 | 8.0 | 14.5 | 0.00 | 0.00 | 0.00 | 40 | 1008.7 |
| 20260506011524 | 23 | 195 | 8.0 | 12.9 | 0.00 | 0.00 | 0.00 | 40 | 1008.5 |
| 20260506010003 | 24 | 167 | 8.0 | 14.5 | 0.00 | 0.00 | 0.00 | 38 | 1008.2 |
| 20260506004511 | 24 | 208 | 8.0 | 19.3 | 0.00 | 0.00 | 0.00 | 38 | 1007.9 |
| 20260506003017 | 24 | 200 | 8.0 | 14.5 | 0.00 | 0.00 | 0.00 | 38 | 1008.0 |
| 20260506001503 | 24 | 187 | 8.0 | 16.1 | 0.00 | 0.00 | 0.00 | 38 | 1007.9 |
| 20260506000003 | 25 | 154 | 11.3 | 19.3 | 0.00 | 0.00 | 0.00 | 37 | 1007.7 |
| 20260505234507 | 25 | 212 | 8.0 | 16.1 | 0.00 | 0.00 | 0.00 | 38 | 1007.6 |
| 20260505233002 | 25 | 219 | 8.0 | 20.9 | 0.00 | 0.00 | 0.00 | 37 | 1007.5 |
| 20260505231503 | 25 | 192 | 8.0 | 16.1 | 0.00 | 0.00 | 0.00 | 37 | 1007.5 |
| 20260505230010 | 25 | 186 | 9.7 | 20.9 | 0.00 | 0.00 | 0.00 | 36 | 1007.4 |
| 20260505224505 | 25 | 192 | 6.4 | 17.7 | 0.00 | 0.00 | 0.00 | 36 | 1007.5 |
| 20260505223008 | 26 | 184 | 8.0 | 24.1 | 0.00 | 0.00 | 0.00 | 35 | 1007.3 |
| 20260505221503 | 26 | 191 | 8.0 | 20.9 | 0.00 | 0.00 | 0.00 | 35 | 1007.3 |
| 20260505220007 | 26 | 188 | 9.7 | 16.1 | 0.00 | 0.00 | 0.00 | 36 | 1007.2 |
| 20260505214504 | 26 | 214 | 11.3 | 17.7 | 0.00 | 0.00 | 0.00 | 36 | 1007.3 |
| 20260505213015 | 26 | 197 | 9.7 | 20.9 | 0.00 | 0.00 | 0.00 | 36 | 1007.1 |